Starlink 11489

operational
NORAD ID: 62271 Int'l Des: 2024-237 Owner: SPXS Country: US Constellation: starlink
LEOCIRCULAR

Starlink 11489について

説明を読み込み中...

リアルタイム位置

3D地球を読み込み中...

次回通過

高度履歴

Altitude vs Time

uPlot chart will show altitude changes over time

軌道要素

1 62271U 24237E 25257.86744224 .00208510 00000-0 15842-2 0 9992
2 62271 43.0017 36.9794 0002706 286.2666 73.7904 15.70896155 45392
Epoch: Sep 14, 2025 • Age: 28 hours

現在のステータス

高度 358.5 km
速度 7.70 km/s
衛星直下点 39.42°N, 87.45°E
打ち上げ日 Dec 8, 2024
運用期間 0.7 years
タイプ internet

技術仕様

分類 Payload
質量 960.00 kg
乾燥質量 910.00 kg
総質量 960.00 kg
長さ 0.30 m
直径 4.10 m
スパン 29.00 m
形状 Box + pan
製造者 SPXS
バスタイプ Starlink V2MD
フェーズステータス In Orbit
所有者/国 SPXS/US

大規模コンステレーション

Loading constellations...